Rbgn^[z[y[W
メイン
   新天体発見情報
     Comet C/2024 C4 (ATLAS)
投稿するにはまず登録を

スレッド表示 | 新しいものから 前のトピック | 次のトピック | 下へ
投稿者 スレッド
佐藤裕久
投稿日時: 2024-2-29 12:42
モデレータ
登録日: 2005-6-12
居住地: 日本
投稿: 2622
オンライン
Comet C/2024 C4 (ATLAS)

2月14日UT、南アフリカ Sutherlandにある小惑星地球衝突最終警報システム Asteroid Terrestrial-
impact Last Alert System (ATLAS)調査プログラムのコースに0.5-m Schmidt 反射望遠鏡で得た、
CCD画像から彗星を発見した。
この天体は、小惑星センターのNEOCP webpageに公表された。
S. Deen(Simi Valley, カリフォルニア州)は、2月14.2日UT、遠隔操作でチリ Rio Hurtadoにある
"Deep Sky Chile" の0.43-m f/6.8 反射望遠鏡 (+輝度フィルター)で得た3枚の300-秒CMOS画像から、
およそ1".0のシーイングで、約3"(半値全幅:FWHM)の拡散したコマが見え、p.a. 180-250°に広がっ
たおよそ9"の尾がある。
吉本勝巳氏(山口県熊毛郡平生町, 2月14.3日UT、30-秒CMOS露出20枚のスタック, 0.36-m f/7.2 反射
望遠鏡 Corrected Dall-Kirkham, Rio Hurtado, チリ,遠隔操作; これは間違いなく彗星。全光度は
16.9等で集光した13"のコマが見え、p.a. 225°に13"の尾がある)や佐藤英貴氏(東京都文京区, 2月
14.37日UT、30-秒CCD露出10枚のスタック, "Deep Sky Chile" 0.51-m f/6.8 アストログラフ, Rio 
Hurtado, チリ, 遠隔操作:強く集光した17"の外側のコマが見えたが、尾はない。8".6の円形範囲で
測定した光度は16.4等であった。2月14.77日、60-秒露出7枚のスタック,0.51-m f/6.8 アストログラ
フ, Siding Spring, NSW, オーストラリア, 遠隔操作: 強く集光した15" のコマが見え、p.a. 230-
260°わたって10"の広い尾がある、るが尾はなかった。7".6の円形範囲で測定した光度は16.0等で
あった)らCCD位置観測者によって彗星状と観測された。

彗星機能の報告は次のとおり、

OC   Date        Reporter           Coma    Tail    PA          Exposures
M22  2024-02-14  A. Fitzsimmons    14"       18"    220
X07  2024-02-14  K. Yoshimoto      13"       13"    225          20x30s
X07  2024-02-14  H. Sato           17"                           10x30s
Q62  2024-02-14  H. Sato           15"       10"    230-260       7x60s
X07  2024-02-15  M. Mattiazzo      20"       10"    230
M49  2024-02-16  D. Husar          13"
Q38  2024-02-16  M. Mattiazzo     120"
X07  2024-02-16  T. Prystavski     24"       30"    189-261       7x50s
W88  2024-02-17  B. Lutkenhoner     5"
M49  2024-02-18  D. Husar          15"       10"    220

発見位置は次のとおり、

     2024 UT             R.A. (2000) Decl.       Mag.
     Feb. 14.08138   16 55 01.64   -48 34 21.2   17.4
          14.08457   16 55 01.82   -48 34 16.2   17.5
          14.10474   16 55 03.01   -48 33 43.9   16.5
          14.10753   16 55 03.22   -48 33 39.6   17.3

MPCの楕円軌道要素、位置推算表は次のとおり、

Orbital elements:
    C/2024 C4 (ATLAS)                                                           
Epoch 2024 Jan. 11.0 TT = JDT 2460320.5                                         
T 2024 Jan. 30.86308 TT                                 Rudenko                 
q   1.4784344            (2000.0)            P               Q                  
z  +0.0000001      Peri.  322.05036     -0.67042676     -0.37120274             
 +/-0.0000000      Node   220.80447     -0.15413922     -0.77729025             
e   0.9999999      Incl.   79.45615     -0.72578858     +0.50796496             
From 69 observations 2024 Feb. 14-20, mean residual 0".4.                       
                                                                                
Ephemeris:
Date    TT    R. A. (2000) Decl.     Delta      r    Elong.  Phase   m1
2024 01 22    16 17 32.9 -57 23 02   1.7741  1.4838    56.8    33.7  17.5
...
2024 02 06    16 44 58.9 -51 59 01   1.6243  1.4810    63.7    36.7  17.3
...
2024 02 14    16 54 56.0 -48 36 34   1.5309  1.4919    68.8    38.1  17.2
...
2024 02 20    17 00 23.2 -45 46 46   1.4563  1.5055    73.2    39.0  17.1
2024 02 21    17 01 07.8 -45 16 42   1.4436  1.5083    74.0    39.1  17.1
2024 02 22    17 01 49.6 -44 46 05   1.4308  1.5111    74.8    39.2  17.1
...
2024 02 28    17 05 00.8 -41 29 48   1.3531  1.5308    79.9    39.6  17.0
...
2024 03 07    17 06 33.1 -36 28 16   1.2494  1.5635    87.7    39.4  16.9
...
2024 03 22    17 00 29.7 -24 19 38   1.0730  1.6430   105.1    35.8  16.8

(MPEC 2024-D98、CBET 5354)

スレッド表示 | 新しいものから 前のトピック | 次のトピック | トップ

投稿するにはまず登録を
 
© 1999 Tsutomu Seki.